Location: S�tio Afonso Gruber
(26.1760°S, 49.5250°W)
Time: 12:17:49
(UTC+00:00)

CUBESAT XI-V - Visible Passes

Search period start: 04 December 2022 00:00
Search period end: 14 December 2022 00:00
Orbit: 667 x 689 km, 98.1° (Epoch: 03 December)

Date Brightness Start Highest point End Pass type
(mag) Time Alt. Az. Time Alt. Az. Time Alt. Az.
04 Dec ? 05:27:02 10° SSE 05:30:30 42° ESE 05:30:30 42° ESE visible
04 Dec ? 07:07:27 10° WSW 07:08:15 10° WSW 07:08:52 10° WSW visible
05 Dec ? 06:02:07 10° S 06:06:06 53° SW 06:06:06 53° SW visible
06 Dec ? 05:00:52 10° SE 05:03:20 21° ESE 05:03:20 21° ESE visible
06 Dec ? 06:38:07 10° SSW 06:41:38 22° WSW 06:41:42 22° WSW visible
07 Dec ? 05:35:14 10° SSE 05:38:56 52° SE 05:38:56 52° SE visible
08 Dec ? 06:10:30 10° S 06:14:31 44° WSW 06:14:31 44° WSW visible
09 Dec ? 05:08:51 10° SE 05:11:43 26° ESE 05:11:43 26° ESE visible
09 Dec ? 06:46:47 10° SSW 06:49:51 18° WSW 06:50:06 18° WSW visible
10 Dec ? 05:43:27 10° SSE 05:47:18 61° SSE 05:47:18 61° SSE visible
11 Dec ? 04:43:25 10° ESE 04:44:31 13° ESE 04:44:31 13° ESE visible
11 Dec ? 06:18:55 10° S 06:22:53 35° WSW 06:22:53 35° WSW visible
12 Dec ? 05:16:53 10° SSE 05:20:06 33° ESE 05:20:06 33° ESE visible
12 Dec ? 06:55:37 10° SW 06:58:01 14° WSW 06:58:28 14° WSW visible
13 Dec ? 05:51:43 10° S 05:55:40 63° SSW 05:55:40 63° SSW visible
